[[{"header":{"parameterUnit":"m.s-1","parameterCategory":1,"la1":30.2991,"la2":30.254,"lo1":-89.0895,"lo2":-89.0444,"dy":0.0017,"dx":0.0017,"nx":28,"ny":28,"refTime":"2025-02-12T03:00:00:Z","depth":0,"parameterNumber":2,"parameterNumberName":"U-component_of_WINDS"},"data":[0,0,0,0,0,0,0,0,0,0,0,0,0,0,0,0,0,0,0,0,0,0,0,0,0,0,0,0,0,0,0,0,0,0,0,0,0,0,0,0,0,0,0,0,0,0,0,0,0,0,0,0,0,0,0,0,0,0,-0.9087,-0.9086,0,-0.9069,-0.9069,-0.9069,-0.902,-0.9019,-0.9018,-0.9017,-0.9001,-0.9001,-0.9002,0,0,0,0,0,0,0,0,0,0,0,0,0,-0.9079,-0.9079,-0.9087,-0.9086,-0.9086,-0.9069,-0.9069,-0.9069,-0.902,-0.9019,-0.9018,-0.9017,-0.9,-0.9001,-0.9002,0,0,0,0,0,0,0,0,0,0,0,0,0,-0.9074,-0.9079,-0.9087,-0.906,-0.9057,-0.9069,-0.9069,-0.9069,-0.9021,-0.9019,-0.9017,-0.9016,-0.9,-0.9001,-0.9002,-0.9039,0,0,-0.9004,-0.9005,0,0,0,0,0,0,0,0,-0.9074,-0.9074,-0.9064,-0.9062,-0.9059,-0.9045,-0.906,-0.9059,-0.9021,-0.9035,-0.9017,-0.9015,-0.9017,-0.9016,-0.9016,-0.9038,-0.9037,-0.9004,-0.9005,-0.9005,-0.9005,0,0,0,0,0,0,0,-0.9075,-0.9075,-0.908,-0.9064,-0.9061,-0.9049,-0.9047,-0.906,-0.9035,-0.9033,-0.903,-0.9028,-0.9015,-0.9016,-0.9016,-0.9037,-0.9004,-0.9005,-0.9006,-0.9006,-0.9087,-0.9088,0,0,0,0,0,0,-0.9079,-0.9075,-0.908,-0.9079,-0.9063,-0.9051,-0.9048,-0.9051,-0.9035,-0.903,-0.903,-0.9026,-0.9015,-0.9015,-0.9015,-0.9057,-0.9005,-0.9006,-0.9006,-0.9085,-0.9087,-0.9089,0,0,0,0,0,0,-0.9079,-0.908,-0.9081,-0.9076,-0.9076,-0.9052,-0.9057,-0.9052,-0.9052,-0.9032,-0.9027,-0.9035,-0.9014,-0.9014,-0.9033,-0.9055,-0.9006,-0.9007,-0.9083,-0.9086,-0.9088,-0.9141,0,0,0,0,0,0,-0.9079,-0.908,-0.9094,-0.9077,-0.9076,-0.9099,-0.9058,-0.9053,-0.9054,-0.9049,-0.9035,-0.9032,-0.9013,-0.9032,-0.9034,-0.9056,-0.9008,-0.9081,-0.9084,-0.9087,-0.9137,-0.9145,-0.9151,0,0,0,0,0,-0.9079,-0.911,-0.9095,-0.9095,-0.9093,-0.9101,-0.91,-0.9077,-0.9056,-0.9069,-0.9056,-0.9032,-0.9052,-0.9034,-0.9036,-0.9058,-0.908,-0.9083,-0.9087,-0.9134,-0.9143,-0.9151,0,0,0,0,0,0,-0.913,-0.9107,-0.909,-0.9117,-0.9111,-0.9092,-0.9109,-0.9088,-0.9089,-0.9084,-0.9056,-0.9053,-0.9077,-0.9069,-0.9049,-0.9093,-0.9062,-0.9066,-0.9097,-0.9106,-0.9113,-0.9115,-0.9008,0,0,0,0,0,-0.9145,-0.9153,-0.9132,-0.9158,-0.9155,-0.9133,-0.9135,-0.9118,-0.9111,-0.9109,-0.9097,-0.9092,-0.9096,-0.9101,-0.9104,-0.9135,-0.9131,-0.9151,-0.9159,-0.9165,-0.9169,-0.9184,-0.9193,-0.9101,-0.9101,-0.9101,0,0,-0.9175,-0.9163,-0.917,-0.9168,-0.9161,-0.917,-0.9131,-0.9143,-0.915,-0.9111,-0.9128,-0.9119,-0.9111,-0.9136,-0.9146,-0.9131,-0.9193,-0.9169,-0.9174,-0.9175,-0.9189,-0.9198,-0.9206,-0.9104,-0.9103,-0.9103,0,0,-0.9235,-0.9226,-0.9246,-0.924,-0.9231,-0.9215,-0.922,-0.9205,-0.9197,-0.9213,-0.9184,-0.9192,-0.9201,-0.9197,-0.9196,-0.9252,-0.923,-0.9254,-0.9292,-0.9308,-0.9315,-0.9321,-0.9342,-0.9349,-0.9258,-0.9258,-0.9258,0,-0.9274,-0.9286,-0.926,-0.9273,-0.9273,-0.9237,-0.9257,-0.9253,-0.9245,-0.9246,-0.9228,-0.9238,-0.923,-0.9254,-0.9267,-0.9268,-0.9272,-0.9256,-0.9316,-0.9322,-0.9328,-0.9347,-0.9354,-0.9261,-0.9261,-0.9261,-0.926,0,-0.9334,-0.9343,-0.9361,-0.9354,-0.9355,-0.9372,-0.9348,-0.9353,-0.9335,-0.9321,-0.9338,-0.9327,-0.9328,-0.9332,-0.9315,-0.9353,-0.9343,-0.9321,-0.929,-0.934,-0.9357,-0.9364,-0.9265,-0.9264,-0.9264,-0.9263,0,0,-0.9428,-0.9404,-0.9411,-0.9407,-0.9394,-0.94,-0.9415,-0.9415,-0.9419,-0.9415,-0.9427,-0.9435,-0.9414,-0.9413,-0.9395,-0.9408,-0.9454,-0.9384,-0.9384,-0.9398,-0.9495,-0.9512,-0.9521,-0.9439,-0.944,-0.9441,-0.9495,0,-0.9485,-0.9508,-0.9484,-0.9513,-0.9521,-0.9487,-0.9499,-0.9492,-0.948,-0.9485,-0.9471,-0.9477,-0.9449,-0.9448,-0.946,-0.9446,-0.9473,-0.9441,-0.945,-0.945,-0.9454,-0.953,-0.9548,-0.9601,-0.9502,-0.9503,-0.9504,0,-0.9554,-0.9552,-0.9582,-0.9565,-0.9568,-0.958,-0.9577,-0.9582,-0.9573,-0.9563,-0.9561,-0.9539,-0.9552,-0.9521,-0.9539,-0.9518,-0.952,-0.9513,-0.9515,-0.9515,-0.9481,-0.9533,-0.9617,-0.9625,-0.9515,-0.9514,-0.9513,0,-0.962,-0.9625,-0.9643,-0.964,-0.9621,-0.963,-0.9623,-0.9612,-0.9614,-0.9611,-0.9612,-0.9611,-0.9611,-0.9611,-0.9589,-0.9568,-0.961,-0.9577,-0.9602,-0.9603,-0.9614,-0.9613,-0.9699,-0.9614,-0.9614,-0.9613,-0.9613,0,-0.9686,-0.9706,-0.9672,-0.9683,-0.9704,-0.9676,-0.9697,-0.9686,-0.9677,-0.9685,-0.9655,-0.9664,-0.9634,-0.9639,-0.9622,-0.9639,-0.9639,-0.9632,-0.9627,-0.9635,-0.9636,-0.9636,-0.9633,-0.9615,-0.9615,-0.9615,-0.9614,0,-0.9764,-0.9742,-0.9759,-0.9739,-0.9735,-0.9751,-0.9734,-0.9743,-0.9728,-0.9739,-0.974,-0.9717,-0.9721,-0.9699,-0.97,-0.9688,-0.9715,-0.9704,-0.9718,-0.9715,-0.9742,-0.974,-0.9831,-0.9842,-0.9749,-0.975,-0.9751,0,-0.9808,-0.9822,-0.9803,-0.9807,-0.9801,-0.9806,-0.9807,-0.9779,-0.9781,-0.9772,-0.9783,-0.9784,-0.9785,-0.9794,-0.9777,-0.9778,-0.9767,-0.9799,-0.9767,-0.9774,-0.9768,-0.9767,-0.9769,-0.9806,-0.9807,-0.9808,-0.9809,0,-0.9889,-0.9877,-0.9879,-0.9877,-0.9879,-0.9876,-0.9871,-0.9875,-0.9845,-0.9849,-0.9853,-0.9854,-0.9854,-0.9856,-0.9853,-0.9845,-0.9822,-0.9818,-0.9824,-0.9833,-0.9841,-0.9837,-0.9737,-0.9817,-0.9816,-0.9815,-0.9815,-0.9815,-0.9952,-0.9963,-0.9951,-0.9954,-0.9947,-0.9943,-0.9951,-0.9936,-0.9939,-0.9937,-0.992,-0.9927,-0.9917,-0.991,-0.9904,-0.991,-0.9894,-0.9903,-0.9905,-0.9908,-0.9913,-0.9839,-0.9909,-0.9909,-0.9908,-0.9908,-0.9908,0,-1.0032,-1.0022,-1.0025,-1.0019,-1.0021,-0.9997,-0.9991,-0.9994,-1.0001,-0.9993,-0.9993,-0.9998,-1.0,-0.9982,-0.9982,-0.999,-0.9979,-0.999,-0.999,-0.9989,-0.9926,-0.9921,-0.9999,-0.9999,-0.9999,-0.9999,-0.9999,-0.9999,-1.0074,-1.009,-1.0077,-1.009,-1.008,-1.0086,-1.0084,-1.008,-1.0074,-1.008,-1.0081,-1.0069,-1.0058,-1.0056,-1.0056,-1.0051,-1.0053,-1.0068,-1.0059,-1.0002,-0.9993,-0.9985,-0.998,-1.0069,-1.0069,-1.0121,-1.0122,-1.0122]},{"header":{"parameterUnit":"m.s-1","parameterCategory":1,"la1":30.2991,"la2":30.254,"lo1":-89.0895,"lo2":-89.0444,"dy":0.0017,"dx":0.0017,"nx":28,"ny":28,"refTime":"2025-02-12T03:00:00:Z","depth":0,"parameterNumber":3,"parameterNumberName":"V-component_of_WINDS"},"data":[0,0,0,0,0,0,0,0,0,0,0,0,0,0,0,0,0,0,0,0,0,0,0,0,0,0,0,0,0,0,0,0,0,0,0,0,0,0,0,0,0,0,0,0,0,0,0,0,0,0,0,0,0,0,0,0,0,0,-6.3068,-6.3069,0,-6.3138,-6.3139,-6.3139,-6.3093,-6.3091,-6.3089,-6.3087,-6.3153,-6.3156,-6.316,0,0,0,0,0,0,0,0,0,0,0,0,0,-6.2892,-6.2896,-6.3068,-6.3069,-6.307,-6.3138,-6.3139,-6.3139,-6.3094,-6.3091,-6.3088,-6.3086,-6.3151,-6.3156,-6.316,0,0,0,0,0,0,0,0,0,0,0,0,0,-6.2966,-6.2897,-6.3068,-6.3056,-6.3055,-6.3137,-6.3139,-6.314,-6.3094,-6.3091,-6.3088,-6.3085,-6.315,-6.3155,-6.3161,-6.3258,0,0,-6.3178,-6.318,0,0,0,0,0,0,0,0,-6.2961,-6.2972,-6.3056,-6.3057,-6.3056,-6.3104,-6.31,-6.3179,-6.3095,-6.3079,-6.3087,-6.3083,-6.3139,-6.3145,-6.3165,-6.3261,-6.3264,-6.3178,-6.3182,-6.3184,-6.3186,0,0,0,0,0,0,0,-6.2956,-6.2969,-6.3096,-6.3058,-6.3058,-6.3045,-6.3052,-6.3115,-6.3125,-6.308,-6.3077,-6.3086,-6.3138,-6.3159,-6.3166,-6.3265,-6.3178,-6.3183,-6.3186,-6.3189,-6.3445,-6.3449,0,0,0,0,0,0,-6.2953,-6.2965,-6.3093,-6.3098,-6.3,-6.3051,-6.3058,-6.3092,-6.3125,-6.3127,-6.3089,-6.3084,-6.3151,-6.3159,-6.3168,-6.3285,-6.3184,-6.3189,-6.3192,-6.3442,-6.3446,-6.345,0,0,0,0,0,0,-6.2949,-6.2965,-6.3091,-6.3031,-6.3046,-6.3057,-6.3095,-6.3095,-6.3116,-6.3131,-6.3132,-6.3109,-6.3149,-6.316,-6.3237,-6.3286,-6.3192,-6.3197,-6.3438,-6.3443,-6.3448,-6.3518,0,0,0,0,0,0,-6.2945,-6.2964,-6.3002,-6.3032,-6.3049,-6.316,-6.3098,-6.3098,-6.3126,-6.3121,-6.3151,-6.3153,-6.3148,-6.3229,-6.3242,-6.3292,-6.3201,-6.3433,-6.344,-6.3446,-6.3512,-6.3525,-6.3537,0,0,0,0,0,-6.2939,-6.3017,-6.3004,-6.302,-6.3097,-6.3163,-6.3172,-6.3166,-6.3131,-6.3168,-6.3178,-6.3152,-6.3279,-6.3237,-6.3252,-6.3304,-6.343,-6.3438,-6.3446,-6.3506,-6.3523,-6.3537,0,0,0,0,0,0,-6.299,-6.3021,-6.3006,-6.3098,-6.3128,-6.3155,-6.3202,-6.3184,-6.3224,-6.3216,-6.3206,-6.3213,-6.3294,-6.3306,-6.3259,-6.34,-6.3349,-6.336,-6.3389,-6.3405,-6.3418,-6.3413,-6.3206,0,0,0,0,0,-6.3013,-6.3066,-6.3088,-6.3167,-6.3183,-6.319,-6.3218,-6.3212,-6.3242,-6.3254,-6.3269,-6.3298,-6.3345,-6.3376,-6.3419,-6.3513,-6.3519,-6.3557,-6.357,-6.358,-6.359,-6.3641,-6.3658,-6.3476,-6.3476,-6.3476,0,0,-6.3059,-6.3082,-6.3116,-6.3178,-6.3201,-6.3254,-6.3201,-6.3259,-6.3299,-6.3262,-6.3336,-6.3349,-6.338,-6.3467,-6.3505,-6.348,-6.3641,-6.359,-6.3598,-6.3602,-6.3651,-6.3668,-6.3683,-6.3481,-6.348,-6.3479,0,0,-6.3171,-6.3194,-6.3262,-6.3287,-6.3323,-6.3328,-6.3344,-6.3374,-6.3382,-6.3456,-6.343,-6.3476,-6.3556,-6.358,-6.3603,-6.3726,-6.3703,-6.374,-6.3807,-6.3857,-6.3871,-6.3884,-6.3928,-6.3944,-6.375,-6.375,-6.375,0,-6.3223,-6.3304,-6.3299,-6.336,-6.3388,-6.3361,-6.3429,-6.3453,-6.35,-6.352,-6.3491,-6.3593,-6.3612,-6.3704,-6.3734,-6.3753,-6.3771,-6.3737,-6.387,-6.3883,-6.3894,-6.3936,-6.3953,-6.3755,-6.3754,-6.3754,-6.3753,0,-6.3367,-6.3424,-6.3474,-6.3524,-6.3558,-6.3622,-6.3626,-6.3661,-6.3651,-6.3659,-6.3735,-6.3758,-6.3806,-6.3827,-6.3817,-6.3918,-6.3901,-6.3872,-6.3819,-6.3916,-6.3956,-6.3972,-6.3761,-6.3759,-6.3758,-6.3757,0,0,-6.3512,-6.356,-6.3578,-6.3601,-6.364,-6.3683,-6.3746,-6.3796,-6.3826,-6.386,-6.3912,-6.3982,-6.3955,-6.3981,-6.3974,-6.4019,-6.4115,-6.3983,-6.3984,-6.4007,-6.4228,-6.425,-6.4269,-6.4101,-6.4104,-6.4106,-6.4225,0,-6.3626,-6.3739,-6.3737,-6.3841,-6.3893,-6.3868,-6.3923,-6.3953,-6.3962,-6.4006,-6.4015,-6.4065,-6.4026,-6.4041,-6.4084,-6.4095,-6.4159,-6.4086,-6.4148,-6.4151,-6.4141,-6.4289,-6.4312,-6.4424,-6.4241,-6.4243,-6.4245,0,-6.3774,-6.3816,-6.3926,-6.3959,-6.3981,-6.4031,-6.4077,-6.412,-6.4152,-6.4156,-6.4186,-6.4172,-6.4236,-6.4182,-6.4269,-6.4219,-6.4245,-6.4254,-6.4258,-6.4263,-6.4204,-6.4298,-6.4459,-6.4476,-6.4269,-6.4267,-6.4265,0,-6.3869,-6.3953,-6.403,-6.4051,-6.409,-6.4126,-6.4144,-6.4174,-6.4204,-6.4244,-6.4263,-6.4309,-6.4333,-6.4368,-6.4367,-6.4329,-6.4455,-6.4402,-6.4459,-6.4459,-6.4486,-6.4485,-6.4653,-6.4503,-6.4503,-6.4503,-6.4502,0,-6.3997,-6.4065,-6.4074,-6.4121,-6.4197,-6.4194,-6.4269,-6.4283,-6.431,-6.4359,-6.4339,-6.4385,-6.4381,-6.4427,-6.4426,-6.4498,-6.4509,-6.4513,-6.4512,-6.4515,-6.4515,-6.4531,-6.4523,-6.4507,-6.4506,-6.4505,-6.4504,0,-6.4116,-6.4125,-6.4207,-6.4239,-6.4249,-6.4304,-6.433,-6.4375,-6.4383,-6.4445,-6.4459,-6.4471,-6.4524,-6.4527,-6.4587,-6.4587,-6.4675,-6.4665,-6.4665,-6.4663,-6.472,-6.4715,-6.4905,-6.493,-6.4764,-6.4765,-6.4767,0,-6.4197,-6.4249,-6.4288,-6.4321,-6.4342,-6.4394,-6.4426,-6.4424,-6.4458,-6.45,-6.4539,-6.4592,-6.4633,-6.4719,-6.4732,-6.4779,-6.477,-6.4833,-6.4776,-6.4778,-6.4771,-6.4768,-6.4773,-6.4844,-6.4846,-6.4847,-6.4849,0,-6.434,-6.4342,-6.439,-6.444,-6.4479,-6.4517,-6.4553,-6.458,-6.4583,-6.4622,-6.4677,-6.471,-6.4773,-6.4825,-6.4871,-6.4887,-6.4869,-6.4867,-6.4883,-6.4886,-6.4884,-6.4886,-6.4695,-6.4862,-6.4861,-6.486,-6.4859,-6.4859,-6.4442,-6.4488,-6.4524,-6.4577,-6.4605,-6.4639,-6.4684,-6.4698,-6.4745,-6.4799,-6.4794,-6.4856,-6.4888,-6.4948,-6.4968,-6.5015,-6.4993,-6.5016,-6.5022,-6.5027,-6.5034,-6.4877,-6.5024,-6.5023,-6.5023,-6.5022,-6.5022,0,-6.4584,-6.4606,-6.4656,-6.4709,-6.4751,-6.4733,-6.4771,-6.4808,-6.4863,-6.4895,-6.4937,-6.5002,-6.5052,-6.507,-6.5119,-6.5153,-6.5146,-6.5166,-6.5163,-6.5167,-6.505,-6.5032,-6.5171,-6.5171,-6.5171,-6.5171,-6.5171,-6.5171,-6.4663,-6.4741,-6.4748,-6.4838,-6.4859,-6.4922,-6.4946,-6.4977,-6.5003,-6.5076,-6.5119,-6.5131,-6.5158,-6.5209,-6.5254,-6.5258,-6.5276,-6.53,-6.53,-6.5191,-6.5176,-6.5161,-6.5144,-6.5304,-6.5305,-6.5413,-6.5414,-6.5415]}]]